This is the latest recevied weather packets stored in our database for station/object KC3SOZ. If no packets are shown the sender has not sent any weather packets the latest 10 day(s).
| Time | Temp. | Humidity | Pressure | Rain* | Wind** | Luminosity | Snow |
|---|---|---|---|---|---|---|---|
| 1778187510 | 16.11° C | 43% | 1009.3 hPa | 0 mm | - | 561 W/m² | - |
| 1778187207 | 16.11° C | 46% | 1009 hPa | 0 mm | - | 197 W/m² | - |
| 1778186903 | 16.11° C | 44% | 1009.1 hPa | 0 mm | - | 165 W/m² | - |
| 1778186600 | 16.67° C | 43% | 1009.1 hPa | 0 mm | - | 191 W/m² | - |
| 1778186298 | 16.67° C | 44% | 1009 hPa | 0 mm | - | 339 W/m² | - |
| 1778185996 | 15.56° C | 51% | 1009 hPa | 0 mm | - | 465 W/m² | - |
| 1778185692 | 16.11° C | 45% | 1009.2 hPa | 0 mm | - | 122 W/m² | - |
| 1778185388 | 16.67° C | 44% | 1009.2 hPa | 0 mm | - | 153 W/m² | - |
| 1778185083 | 16.67° C | 43% | 1009.3 hPa | 0 mm | - | 608 W/m² | - |
| 1778184780 | 16.67° C | 43% | 1009.3 hPa | 0 mm | - | 139 W/m² | - |
| 1778184476 | 17.22° C | 42% | 1009.4 hPa | 0 mm | - | 640 W/m² | - |
| 1778184172 | 17.78° C | 43% | 1009.3 hPa | 0 mm | - | 675 W/m² | - |
| 1778183868 | 17.22° C | 48% | 1009.2 hPa | 0 mm | - | 693 W/m² | - |
| 1778183566 | 16.67° C | 41% | 1009.4 hPa | 0 mm | - | 672 W/m² | - |
| 1778183263 | 16.67° C | 42% | 1009.6 hPa | 0 mm | - | 714 W/m² | - |
| 1778182959 | 16.67° C | 45% | 1009.5 hPa | 0 mm | - | 750 W/m² | - |
| 1778182656 | 16.67° C | 44% | 1009.6 hPa | 0 mm | - | 796 W/m² | - |
| 1778182352 | 17.22° C | 41% | 1009.5 hPa | 0 mm | - | 229 W/m² | - |
| 1778182048 | 16.11° C | 53% | 1009.9 hPa | 0 mm | - | 464 W/m² | - |
| 1778181745 | 16.11° C | 44% | 1010 hPa | 0 mm | - | 808 W/m² | - |
| 1778181441 | 16.67° C | 44% | 1010.1 hPa | 0 mm | - | 766 W/m² | - |
| 1778181139 | 16.67° C | 47% | 1010 hPa | 0 mm | - | 815 W/m² | - |
| 1778180835 | 15.56° C | 47% | 1010.1 hPa | 0 mm | - | 825 W/m² | - |
| 1778180534 | 15° C | 46% | 1010.2 hPa | 0 mm | - | 204 W/m² | - |
| 1778180232 | 14.44° C | 48% | 1010.2 hPa | 0 mm | - | 294 W/m² | - |
* Rain latest hour (hover to see other rain measurements)
** Current wind speed in m/s (hover to see current wind gust speed)